Location: Bryngwran
(53.2667°N, 4.4833°W)
Time: 11:19:33
(UTC+00:00)

Daily predictions for brighter satellites

Satellite Brightness Start Highest point End
(mag) Time Altitude Azimuth Time Altitude Azimuth Time Altitude Azimuth
Cosmos 1464 Rocket 4.3 16:30:48 10° SSE 16:36:57 52° E 16:43:06 10° NNE
SL-16 R/B 3.7 16:33:32 10° N 16:39:15 40° WNW 16:44:57 10° SW
NOSS 3-4 (A) 4.4 16:33:55 10° WNW 16:39:34 36° N 16:45:48 10° ENE
NOSS 3-4 (C) 4.4 16:34:01 10° WNW 16:39:39 36° N 16:45:53 10° ENE
Nadezhda 4 Rocket 4.1 16:33:35 10° N 16:39:50 58° ENE 16:46:04 10° SSE
SL-24 R/B - RUBIN 2 4.0 16:35:34 10° NW 16:40:08 45° NNE 16:44:22 10° ESE
Cosmos 2322 Rocket 3.7 16:37:07 10° NNW 16:40:59 18° NNE 16:44:49 10° ENE
Cosmos 990 Rocket 4.0 16:36:40 10° NNW 16:41:53 69° ENE 16:47:02 10° SE
ATLAS 2AS CENTAUR R/B 3.5 16:34:39 10° W 16:42:10 49° NNW 16:49:22 10° NE
SeaSat 1 2.8 16:37:22 10° NNE 16:42:17 68° NW 16:47:11 10° SW
Cosmos 1697 Rocket 2.7 16:38:30 10° NNW 16:44:04 60° NE 16:49:38 10° SE
RESURS DK-1 4.4 16:41:25 10° W 16:44:25 19° NW 16:47:25 10° NNE
Cosmos 1862 4.1 16:43:27 10° NNW 16:47:23 57° W 16:51:19 10° S
Sich 1 4.0 16:44:06 10° N 16:47:40 25° ENE 16:51:15 10° ESE
FengYun 1-2 T 4.4 16:42:48 10° SE 16:48:12 54° ENE 16:53:35 10° N
Cosmos 1980 Rocket 2.6 16:42:50 10° NNW 16:48:14 41° NE 16:53:33 10° ESE
Cosmos 1271 Rocket 2.9 16:44:41 10° SSW 16:48:39 82° WNW 16:52:41 10° NNE
NOSS 2-1 (C) 3.1 16:45:48 10° WSW 16:49:00 66° NW 16:52:30 10° NE
Cosmos 1805 Rocket 4.3 16:45:53 10° N 16:49:46 31° ENE 16:53:39 10° SE
Cosmos 2369 3.9 16:44:39 10° NNW 16:50:15 49° NE 16:55:48 10° SE
NOAA 6 4.3 16:46:43 10° SE 16:51:35 45° ENE 16:56:28 10° N
Cosmos 2221 2.6 16:48:46 10° S 16:52:57 57° E 16:57:12 10° NNE
CZ-4C R/B 3.0 16:47:44 10° NW 16:54:15 56° NNE 17:02:07 10° ESE
Cosmos 1092 Rocket 4.3 16:49:31 10° N 16:55:40 47° ENE 17:01:46 10° SE
Cosmos 2084 4.0 16:52:11 10° NW 16:56:24 63° SW 17:00:47 10° SE
NOSS 3-1 (A) 4.3 16:49:15 10° NW 16:56:29 81° SW 17:05:04 10° SE
Envisat 4.4 16:52:43 10° S 16:57:33 43° W 17:02:25 10° NNW
Cosmos 1842 Rocket 3.7 16:53:28 10° S 16:57:50 56° E 17:02:16 10° NNE
USA 234 3.5 16:51:24 10° ESE 16:57:58 80° SSW 17:04:33 10° WNW
NOSS 2-1 (D) 3.3 16:55:09 10° WSW 16:58:20 56° NW 17:01:51 10° NE
SL-16 R/B 3.4 16:54:42 10° NNW 16:59:13 23° NNE 17:03:41 10° E
USA 306 2.9 16:55:05 10° W 16:59:22 85° N 17:03:35 10° E
ISS -3.1 16:57:07 10° W 17:00:28 56° SSW 17:03:47 10° ESE
Cosmos 2237 Rocket 4.2 16:58:12 10° NW 17:00:55 13° N 17:03:38 10° NNE
Meteor 1-25 Rocket 4.3 16:55:58 10° N 17:01:28 56° ENE 17:06:57 10° SSE
NOSS 2-2 (D) 4.1 16:57:38 10° NW 17:02:18 67° NE 17:08:46 10° ESE
NOSS 2-2 (E) 4.2 16:57:48 10° NW 17:02:38 77° NE 17:09:25 10° SE
Cosmos 2082 Rocket 3.6 17:03:28 10° SE 17:07:23 19° E 17:10:43 12° ENE
SMAP 3.1 17:02:56 10° SSE 17:07:28 57° ENE 17:12:04 10° N
Meteor PRIRODA 3.6 17:04:26 10° SSE 17:08:04 89° ENE 17:11:43 10° NNW
Cosmos 1939 Rocket 2.9 17:04:37 10° SSE 17:08:39 58° ENE 17:12:40 10° N
Cosmos 2333 Rocket 3.9 17:05:59 10° NNW 17:09:24 16° NNE 17:12:25 11° NE
Cosmos 44 Rocket 3.9 17:04:50 10° NW 17:09:30 37° NNE 17:14:01 10° E
CORIOLIS 4.2 17:05:14 10° SE 17:10:32 58° ENE 17:15:53 10° N
Meteor 2-2 Rocket 4.4 17:05:15 10° SSW 17:11:17 88° WNW 17:17:18 10° NNE
NOAA 12 4.2 17:08:24 10° SSE 17:13:45 89° WSW 17:19:06 10° NNW
Cosmos 2278 4.0 17:08:47 10° NNW 17:14:17 45° NE 17:19:44 10° ESE
Cosmos 1602 3.9 17:11:23 10° N 17:15:10 49° ENE 17:18:55 10° SSE
CZ-4B DEB 4.3 17:11:32 10° SE 17:16:55 58° ENE 17:22:19 10° N
USA 307 2.9 17:13:50 10° W 17:18:08 83° N 17:21:38 15° E
SL-16 R/B 4.2 17:16:25 10° NW 17:19:49 16° NNW 17:23:13 10° NNE
AQUARIUS 4.1 17:16:56 10° SSE 17:21:22 63° ENE 17:25:50 10° N
Cosmos 540 Rocket 4.1 17:17:38 10° SSE 17:22:11 34° ESE 17:26:07 13° NE
Cosmos 2034 Rocket 3.9 17:17:40 10° S 17:23:48 77° E 17:30:00 10° NNE
H-2A R/B 4.3 17:25:03 12° NNE 17:25:03 12° NNE 17:25:50 10° NNE
COSMO-SKYMED 1 4.0 17:23:24 16° ENE 17:24:34 18° E 17:27:31 10° SE
Radarsat 4.5 17:20:44 10° SSE 17:25:54 72° ENE 17:31:07 10° NNW
ARGOS 3.7 17:22:21 10° SE 17:27:12 35° ENE 17:32:02 10° N
COSMOS 2406 3.7 17:22:22 10° S 17:27:42 41° ESE 17:32:10 14° NE
Meteor 2-21 4.4 17:22:12 10° N 17:28:15 59° ENE 17:34:13 10° SSE
SL-08 R/B 3.4 17:23:33 10° NNE 17:28:19 80° WNW 17:32:58 10° SSW
Cosmos 1833 Rocket 2.9 17:23:30 10° S 17:28:55 51° ESE 17:33:41 14° NE
ATLAS 5 CENTAUR R/B 3.0 17:18:52 10° WNW 17:30:17 59° NNE 17:33:09 17° E
Cosmos 1782 3.5 17:27:16 10° SSE 17:30:53 33° E 17:33:48 14° NNE
Cosmos 1633 Rocket 3.7 17:29:01 10° N 17:32:58 32° ENE 17:36:53 10° SE
Cosmos 1818 3.8 17:28:14 10° NW 17:33:36 50° NE 17:38:50 10° ESE
ATLAS CENTAUR R/B 2.9 17:30:30 10° W 17:34:24 31° NNW 17:37:49 14° NNE
Cosmos 2219 Rocket 3.9 17:31:12 10° NNW 17:34:37 16° NNE 17:36:28 14° NE
Cosmos 468 Rocket 4.0 17:31:31 10° SSW 17:36:38 67° ESE 17:41:29 12° NNE
Cosmos 1898 Rocket 4.0 17:31:49 10° NNW 17:37:03 64° WSW 17:42:11 10° S
Cosmos 1606 3.9 17:33:54 10° SW 17:37:29 41° WNW 17:41:07 10° N
Cosmos 1340 Rocket 3.9 17:34:04 10° NNW 17:38:01 48° W 17:41:56 10° S
ERBS 2.5 17:36:22 10° W 17:39:32 53° NNW 17:41:01 27° NE
CZ-4C R/B 4.5 17:35:50 10° N 17:39:34 41° WNW 17:43:05 10° SW
YAOGAN 1 3.8 17:39:35 21° ENE 17:39:37 21° ENE 17:42:51 10° N
USA 308 2.8 17:36:22 10° W 17:40:39 80° N 17:43:14 23° E
CZ-2D R/B 3.2 17:38:19 10° SSE 17:42:06 62° ENE 17:45:53 10° N
GEOS 3 Rocket 3.9 17:37:58 14° ESE 17:42:19 49° NNE 17:47:17 10° NW
CZ-2C R/B 3.3 17:40:35 15° NE 17:44:08 30° E 17:48:38 10° SSE
Cosmos 1634 Rocket 4.1 17:38:23 10° SSE 17:44:33 56° E 17:50:44 10° NNE
Cosmos 1500 3.0 17:40:58 10° N 17:44:43 66° ENE 17:48:26 10° SSE
COSMOS 2455 3.4 17:39:16 10° S 17:44:47 39° ESE 17:48:14 21° ENE
Cosmos 2026 Rocket 3.9 17:39:55 10° N 17:46:08 82° E 17:52:13 10° SSE
PAYLOAD B 4.2 17:41:08 10° SSE 17:46:44 76° ENE 17:52:21 10° NNW
Cosmos 1743 Rocket 4.3 17:43:16 10° NNW 17:47:31 54° W 17:51:43 10° S
CZ-2C R/B 4.2 17:43:34 10° S 17:48:11 43° W 17:52:44 10° NNW
Lacrosse 5 rocket 1.1 17:44:28 10° WNW 17:48:20 72° NNE 17:50:36 25° ESE
CZ-4B R/B 3.2 17:43:59 10° SE 17:49:16 58° ENE 17:54:30 10° N
Cosmos 1151 Rocket 3.7 17:46:07 10° SSE 17:49:57 32° E 17:51:27 25° NE
Meteor 2-14 Rocket 4.4 17:45:15 10° N 17:51:25 84° ENE 17:57:30 10° SSE
Okean O Rocket 1.9 17:49:00 10° SE 17:53:15 46° ENE 17:57:32 10° N
CZ-4 R/B 3.1 17:59:39 18° NNE 17:59:39 18° NNE 18:01:08 10° N
NOSS 2-1 (E) 4.4 17:55:38 10° W 17:58:33 28° NNW 18:00:09 20° NNE
Cosmos 1666 Rocket 3.5 17:54:30 10° N 17:58:57 62° ENE 18:03:20 10° SSE
Meteor 1-11 Rocket 4.3 17:55:38 10° N 18:00:43 34° ENE 18:05:45 10° SE
Cosmos 2150 Rocket 4.3 17:57:01 10° NNW 18:01:56 42° NE 18:04:48 22° ESE
Cosmos 1470 Rocket 4.1 17:57:56 10° N 18:02:05 37° ENE 18:06:14 10° SE
Cosmos 1655 Rocket 4.3 17:57:53 10° N 18:04:00 44° ENE 18:10:04 10° SE
USA 267 3.3 18:01:04 24° ENE 18:05:17 75° SSE 18:11:49 10° SW
H-2A R/B 2.0 18:00:13 10° SSE 18:05:23 89° WSW 18:10:26 10° NNW
Meteor 1-26 Rocket 4.3 18:00:12 10° S 18:06:10 73° E 18:12:13 10° NNE
Cosmos 2360 Rocket 3.1 18:01:18 10° NNW 18:06:13 29° NE 18:07:10 27° NE
USA 305 2.8 18:02:59 10° W 18:07:14 83° N 18:08:46 39° E
Cosmos 1328 Rocket 4.1 18:03:26 10° SSE 18:07:27 35° E 18:07:30 35° E
Cosmos 1763 Rocket 3.7 18:04:41 10° SW 18:09:45 69° WNW 18:13:56 16° NNE
PSLV R/B 4.3 18:07:16 10° S 18:10:54 57° WSW 18:14:38 10° NNW
Cosmos 1933 3.7 18:07:03 10° SSW 18:11:05 66° WNW 18:15:02 11° N
SKYMED 2 3.8 18:12:00 38° ENE 18:13:03 45° E 18:17:13 10° S
Cosmos 1666 2.4 18:10:28 10° N 18:14:13 78° E 18:17:55 10° SSE
Meteor 2-21 Rocket 4.4 18:08:25 10° NNW 18:14:35 89° W 18:20:39 10° S
COSMOS 2428 4.2 18:11:23 10° NNW 18:15:24 19° NNE 18:15:41 19° NNE
Cosmos 841 Rocket 3.4 18:11:03 10° SSW 18:16:10 69° ESE 18:18:54 28° NE
Feng Yun 1-1 Rocket 4.4 18:13:00 10° SE 18:18:46 58° ENE 18:24:29 10° N
SeaSat 1 4.5 18:15:32 10° NNE 18:19:08 21° NNW 18:22:43 10° W
ATLAS CENTAUR R/B 2.4 18:11:09 10° SW 18:19:27 68° SSE 18:20:43 44° E
Cosmos 1125 Rocket 3.6 18:14:58 10° NNW 18:20:06 52° ENE 18:22:14 32° ESE
Sich 1 4.2 18:21:27 10° NNW 18:25:33 44° W 18:29:39 10° SSW
Cosmos 2322 Rocket 2.4 18:20:56 10° NNW 18:26:29 48° NE 18:27:49 40° E
NOSS 3-4 (A) 4.2 18:25:56 10° NW 18:31:59 40° NNE 18:33:59 34° NE
NOSS 3-4 (C) 4.3 18:26:02 10° NW 18:32:05 40° NNE 18:34:03 34° NE
Cosmos 1980 Rocket 3.1 18:26:56 10° NW 18:32:23 50° WSW 18:37:47 10° S
ATLAS 2AS CENTAUR R/B 3.7 18:27:42 10° WNW 18:34:44 38° N 18:37:27 29° NE
SL-08 RB Rocket 3.6 18:31:51 10° SSE 18:36:30 78° ENE 18:41:06 10° NNW
ISS -1.6 18:34:09 10° W 18:36:52 22° SSW 18:37:59 19° S
Cosmos 1812 2.6 18:33:24 10° SSW 18:37:15 84° W 18:37:47 64° N
USA 306 2.7 18:35:04 10° WNW 18:39:20 90° SSW 18:39:35 79° ESE
deb Chang Zheng 4 4.2 18:38:19 10° S 18:42:34 57° WSW 18:46:50 10° NNW
CZ-4C R/B 3.4 18:36:13 10° NW 18:43:10 62° SW 18:51:20 10° SSE
SL-16 R/B 2.1 18:38:35 10° NNW 18:44:18 73° NE 18:46:11 43° SE
Cosmos 2237 Rocket 4.0 18:44:04 10° NNW 18:47:00 16° NNE 18:47:00 16° NNE
Cosmos 2082 Rocket 2.1 18:45:03 10° SSW 18:50:44 89° WNW 18:52:35 45° NNE
Cosmos 44 Rocket 3.6 18:46:26 10° NW 18:51:22 65° SW 18:53:10 37° SSE
MOS 1-B Rocket 4.1 18:47:18 10° NNE 18:53:05 75° WNW 18:59:33 10° SSW
Cosmos 2333 Rocket 3.2 18:50:17 10° NNW 18:54:27 31° NNE 18:54:27 31° NNE
USA 307 3.1 18:53:50 10° WNW 18:57:40 70° W 18:57:40 70° W
H-2A R/B 4.5 19:01:35 18° NNW 19:01:35 18° NNW 19:02:40 10° NNW
COSMO-SKYMED 1 2.8 19:00:37 59° NNW 19:01:12 67° WNW 19:05:30 10° SSW
Cosmos 540 Rocket 4.3 18:58:47 10° SW 19:03:41 46° NW 19:05:57 28° N
SL-16 R/B 4.3 19:03:38 10° NNW 19:06:16 14° N 19:06:16 14° N
Cosmos 2298 Rocket 4.2 19:01:42 10° NNW 19:07:00 69° WSW 19:09:28 32° S
ARGOS 4.0 19:02:06 10° S 19:07:21 49° W 19:12:36 10° NNW
Cosmos 1570 Rocket 3.9 19:03:31 10° SSW 19:08:46 85° WNW 19:09:03 80° N
COSMOS 2406 4.0 19:06:25 10° WSW 19:11:59 48° NW 19:14:13 32° N
Cosmos 2279 Rocket 4.4 19:06:38 10° SSW 19:12:46 60° WNW 19:18:55 10° N
Cosmos 1833 Rocket 3.8 19:07:45 10° WSW 19:13:02 40° NW 19:15:24 27° N
Cosmos 2266 Rocket 4.1 19:06:51 10° NNW 19:13:14 76° W 19:19:37 10° S
Cosmos 1814 Rocket 4.1 19:08:14 10° SSW 19:13:27 71° WNW 19:14:00 65° NNW
ATLAS CENTAUR R/B 3.6 19:11:10 10° NW 19:13:56 20° NNW 19:13:56 20° NNW
YAOGAN 1 3.6 19:16:44 40° NW 19:16:44 40° NW 19:19:40 10° NNW
Cosmos 1818 4.5 19:11:59 10° NW 19:17:13 46° WSW 19:19:32 29° S
Cosmos 2219 Rocket 3.5 19:15:01 10° NNW 19:18:11 28° N 19:18:11 28° N
GEOS 3 Rocket 4.1 19:19:06 44° S 19:20:21 55° SW 19:25:28 10° NW
USA 308 4.0 19:16:20 10° WNW 19:19:15 42° W 19:19:15 42° W
Meteor 2-15 Rocket 4.3 19:15:10 10° S 19:21:18 86° E 19:21:43 78° NNE
CZ-2C R/B 3.3 19:22:06 27° N 19:24:41 50° WNW 19:29:40 10° SW
Lacrosse 5 rocket 3.1 19:23:38 10° WNW 19:26:13 30° WSW 19:26:13 30° WSW
Okean O Rocket 3.7 19:26:01 10° SSW 19:29:48 27° W 19:33:36 10° NW
COSMOS 2455 3.2 19:24:36 10° WSW 19:30:34 59° NW 19:31:24 54° N
CZ-4 R/B 3.9 19:35:38 15° NNW 19:35:38 15° NNW 19:36:29 10° NNW
USA 267 3.3 19:48:25 69° NNW 19:48:25 69° NNW 19:54:49 10° W
Cosmos 2360 Rocket 3.1 19:45:10 10° NNW 19:48:56 43° NW 19:48:56 43° NW
COSMOS 2428 4.5 19:55:26 10° NNW 19:57:42 24° NNW 19:57:42 24° NNW
Cosmos 2322 Rocket 3.4 20:05:11 10° NW 20:09:40 39° W 20:09:40 39° W
NOSS 3-4 (A) 4.5 20:16:59 10° NW 20:21:25 46° NW 20:21:25 46° NW
NOSS 3-4 (C) 4.5 20:17:05 10° NW 20:21:30 46° NW 20:21:30 46° NW
ATLAS 2AS CENTAUR R/B 3.7 20:19:49 10° NW 20:24:52 41° NNW 20:24:52 41° NNW
SL-16 R/B 4.1 20:23:23 10° NW 20:27:54 25° WSW 20:28:07 25° WSW
Cosmos 2082 Rocket 4.1 20:30:51 10° W 20:34:28 25° NW 20:34:28 25° NW
Cosmos 2333 Rocket 4.3 20:34:31 10° NW 20:36:27 22° NW 20:36:27 22° NW
